Vorticity
4 6 7 5 4 4 4 4 4 4 5 6 7 7 7 6 6 5 5 5 5 4 4 3 3 3 3 4 5 4 5 4 5 6 5 7 6 5 5 6 4 5 5
5 6 6 4 4 4 4 4 4 5 6 6 6 5 5 5 4 3 4 4 4 5 6 6 7 7 7 7 7 6 5 5 5 1 -0 2 3 7 5 6 5 7 5
7 5 4 4 4 4 5 5 6 6 6 5 5 4 4 3 3 4 7 10 11 10 11 10 10 11 10 11 10 9 10 10 6 4 8 6 8 4 -2 11 6 11 3
5 5 5 5 6 6 6 6 5 5 5 4 4 4 4 5 8 12 11 8 9 9 10 10 10 9 8 8 9 10 9 12 15 9 3 1 0 5 5 10 -5 3 9
8 7 7 7 7 6 6 5 5 4 4 4 5 8 12 12 9 8 9 10 9 9 7 6 8 9 8 8 8 9 9 9 9 11 13 16 22 12 8 4 6 10 0
9 8 8 7 6 5 5 4 4 4 6 8 11 11 8 8 9 10 11 8 8 9 9 8 8 9 9 9 9 8 8 9 9 9 9 9 9 10 16 2 6 8 7
7 7 7 6 5 4 4 4 7 8 10 10 9 8 7 6 8 6 7 9 8 8 8 8 7 7 7 7 6 6 7 7 7 7 7 7 8 9 11 14 14 3 -6
7 6 5 5 4 4 6 8 10 11 10 8 8 7 8 5 7 9 8 7 7 7 5 7 8 7 8 9 8 8 9 9 9 8 8 9 9 8 8 9 10 12 15
6 5 4 3 4 6 8 10 10 10 8 8 9 8 12 9 10 6 6 7 6 7 6 6 7 6 7 8 7 8 9 9 9 9 10 10 9 8 8 8 8 8 8
6 4 4 5 7 9 10 10 9 8 8 9 8 8 8 8 7 7 6 7 6 5 5 4 7 7 7 8 7 7 9 10 10 10 9 10 10 9 8 8 8 7 8
4 4 5 6 9 9 9 8 9 9 9 8 8 7 5 4 5 5 4 4 5 7 8 9 10 11 10 10 11 11 10 10 9 8 10 12 12 14 15 13 13 17 16
5 3 4 6 8 8 8 9 9 9 8 8 7 6 6 6 6 5 5 5 4 8 9 11 11 12 13 14 10 10 8 10 10 9 11 13 13 13 15 17 14 16 17
4 3 4 8 8 9 10 10 9 8 7 6 6 6 6 6 6 7 6 5 6 9 8 9 10 13 12 10 9 11 10 10 10 12 15 15 15 16 17 16 14 15 13
5 3 6 8 8 10 10 9 8 6 6 6 6 6 6 7 8 9 8 9 9 8 9 13 11 11 7 9 8 13 11 11 15 16 16 17 17 17 15 16 19 20 19
4 3 9 8 10 10 9 7 6 6 6 6 7 7 8 8 9 9 10 10 11 12 9 12 8 8 8 8 12 12 12 15 15 17 17 17 16 15 14 15 10 16 14
3 8 9 9 10 9 7 6 6 7 7 7 7 8 9 9 11 13 13 12 11 10 9 9 7 5 7 12 14 17 19 17 16 17 20 20 15 16 23 11 11 11 7
6 9 9 10 9 7 6 6 7 6 6 8 9 10 10 11 12 12 11 10 9 10 8 7 6 10 10 9 8 12 8 15 19 16 13 14 16 14 17 13 0 3 6
9 7 10 9 7 6 7 6 6 6 9 10 10 10 10 11 11 10 8 8 9 9 12 14 13 14 15 18 18 8 9 7 9 21 24 21 17 18 17 17 15 15 16
8 10 10 8 7 7 6 6 7 10 10 10 9 10 11 9 8 8 8 11 11 14 14 13 14 18 18 16 15 12 6 13 21 18 15 12 12 12 12 14 15 15 15
10 10 8 7 7 6 6 8 10 9 9 9 11 10 8 7 8 10 14 16 16 15 16 15 11 20 15 11 4 -1 20 17 13 11 12 14 17 15 16 15 14 12 11
10 8 7 7 6 7 8 10 9 9 9 11 9 6 6 9 12 14 16 15 16 21 18 17 16 1 -0 4 24 20 12 10 12 14 15 13 14 18 17 17 20 19 14
8 8 7 6 7 9 9 10 8 8 11 7 6 7 12 13 15 18 16 16 20 20 10 8 -1 5 25 21 16 10 12 12 12 18 13 20 14 13 18 19 21 24 25
8 7 6 7 9 8 10 9 9 9 7 6 9 13 15 20 18 13 15 18 15 5 1 18 21 21 16 8 12 15 14 12 15 14 15 19 13 17 12 21 19 17 19
7 5 7 9 9 10 9 8 8 7 6 10 13 18 21 15 13 18 15 15 1 20 24 16 15 9 12 19 14 11 9 9 14 18 18 15 12 16 16 18 23 23 17
5 7 9 9 10 9 7 9 6 5 9 13 19 22 13 16 17 14 11 7 18 20 16 12 12 23 14 11 13 11 13 9 10 15 14 5 6 5 12 20 29 22 16
7 9 10 10 9 7 9 7 6 9 14 17 23 13 15 17 13 14 15 17 19 12 8 13 22 10 13 16 15 13 11 8 7 7 12 7 11 11 11 20 22 22 16
Height
3122 3120 3118 3117 3115 3114 3113 3110 3108 3106 3104 3102 3099 3097 3094 3092 3089 3086 3084 3082 3080 3078 3075 3073 3071 3070 3069 3067 3066 3066 3064 3063 3062 3061 3059 3059 3058 3057 3057 3057 3057 3057 3058
3118 3116 3115 3113 3111 3109 3107 3105 3103 3100 3098 3096 3094 3091 3089 3087 3083 3081 3079 3077 3073 3070 3067 3064 3062 3060 3058 3057 3056 3055 3054 3052 3050 3048 3048 3047 3047 3047 3047 3047 3046 3047 3048
3113 3112 3110 3109 3107 3105 3103 3100 3097 3095 3092 3090 3087 3085 3083 3079 3075 3073 3070 3067 3064 3061 3058 3055 3052 3051 3048 3046 3044 3043 3043 3041 3039 3037 3037 3036 3035 3035 3034 3035 3035 3036 3038
3109 3108 3106 3105 3103 3100 3098 3095 3092 3089 3087 3084 3082 3079 3076 3072 3068 3065 3062 3058 3055 3052 3049 3046 3043 3041 3038 3035 3033 3032 3030 3029 3028 3027 3026 3024 3023 3023 3022 3022 3022 3023 3024
3105 3103 3102 3100 3097 3095 3093 3089 3086 3084 3081 3078 3075 3072 3069 3064 3060 3057 3054 3051 3046 3043 3040 3037 3035 3032 3029 3026 3023 3021 3019 3017 3015 3015 3013 3012 3011 3009 3008 3009 3009 3009 3010
3100 3099 3098 3096 3093 3091 3088 3085 3082 3077 3073 3070 3067 3064 3060 3056 3053 3050 3047 3043 3040 3036 3032 3029 3025 3022 3019 3015 3012 3009 3006 3003 3001 2999 2998 2997 2996 2994 2994 2994 2994 2994 2994
3097 3096 3094 3092 3089 3086 3083 3080 3076 3071 3065 3061 3058 3057 3054 3049 3046 3042 3040 3035 3031 3027 3023 3019 3015 3012 3009 3006 3002 2998 2995 2992 2988 2985 2983 2983 2981 2979 2978 2977 2977 2979 2979
3094 3092 3090 3088 3085 3081 3077 3073 3069 3064 3058 3052 3049 3045 3042 3043 3038 3033 3031 3028 3024 3020 3016 3011 3007 3002 2998 2994 2991 2987 2984 2980 2976 2972 2968 2966 2964 2963 2961 2960 2960 2961 2961
3091 3089 3087 3084 3080 3075 3070 3065 3061 3057 3052 3046 3040 3036 3030 3026 3024 3026 3022 3020 3014 3010 3006 3001 2997 2991 2986 2981 2976 2973 2969 2965 2961 2957 2953 2950 2946 2944 2943 2942 2942 2941 2941
3088 3086 3083 3079 3074 3069 3064 3059 3054 3049 3045 3040 3035 3029 3024 3016 3008 3001 3010 3009 3003 2998 2992 2987 2983 2977 2972 2966 2961 2956 2951 2947 2944 2941 2937 2932 2927 2924 2921 2919 2920 2920 2920
3084 3081 3077 3073 3068 3063 3057 3052 3047 3042 3037 3033 3028 3024 3019 3012 3004 2992 2981 2984 2988 2986 2980 2973 2968 2962 2957 2951 2945 2940 2935 2930 2926 2921 2916 2912 2908 2905 2902 2899 2897 2896 2896
3079 3075 3071 3066 3061 3056 3051 3045 3040 3035 3031 3026 3021 3015 3009 3002 2996 2987 2977 2968 2958 2958 2957 2957 2954 2949 2943 2936 2930 2924 2918 2913 2908 2903 2898 2892 2887 2884 2880 2878 2874 2873 2871
3073 3069 3064 3059 3054 3049 3043 3038 3034 3028 3023 3018 3012 3007 3000 2993 2984 2976 2966 2956 2947 2943 2937 2933 2930 2925 2920 2914 2909 2905 2901 2896 2890 2884 2878 2873 2869 2863 2859 2856 2853 2853 2853
3067 3062 3057 3051 3046 3041 3036 3031 3026 3021 3016 3010 3003 2997 2990 2983 2976 2967 2957 2944 2932 2928 2925 2921 2917 2910 2901 2893 2886 2880 2874 2871 2867 2862 2858 2854 2849 2844 2840 2837 2835 2835 2835
3060 3056 3050 3045 3039 3034 3029 3023 3018 3013 3007 3001 2994 2987 2980 2972 2965 2957 2949 2939 2926 2910 2906 2909 2900 2896 2884 2876 2871 2862 2857 2853 2848 2842 2837 2832 2829 2826 2822 2819 2818 2818 2817
3053 3049 3043 3038 3032 3027 3021 3016 3010 3004 2998 2991 2984 2976 2969 2961 2953 2946 2937 2928 2918 2905 2889 2898 2890 2880 2868 2858 2851 2845 2840 2835 2832 2828 2821 2815 2811 2807 2805 2803 2803 2800 2800
3046 3041 3036 3030 3025 3020 3014 3007 3001 2994 2987 2980 2973 2965 2957 2948 2940 2932 2923 2914 2905 2894 2879 2880 2874 2866 2858 2846 2836 2827 2821 2817 2813 2810 2804 2799 2794 2789 2787 2785 2783 2782 2779
3038 3033 3028 3022 3017 3011 3006 2999 2992 2985 2977 2970 2962 2954 2946 2937 2929 2920 2910 2900 2890 2882 2868 2857 2859 2850 2840 2833 2824 2814 2807 2802 2797 2793 2787 2783 2778 2774 2770 2767 2764 2762 2761
3031 3026 3020 3015 3010 3004 2997 2990 2982 2975 2967 2960 2951 2942 2934 2924 2915 2905 2895 2885 2876 2868 2858 2845 2836 2833 2825 2817 2808 2802 2797 2789 2783 2779 2774 2770 2766 2761 2756 2753 2750 2748 2747
3024 3018 3013 3007 3001 2994 2987 2980 2973 2966 2958 2949 2940 2932 2923 2912 2901 2891 2881 2871 2861 2853 2844 2834 2825 2817 2811 2805 2797 2788 2781 2777 2771 2768 2763 2758 2751 2746 2743 2739 2736 2733 2730
3016 3011 3005 3000 2993 2985 2978 2971 2963 2954 2946 2939 2931 2921 2911 2900 2889 2878 2867 2858 2849 2840 2832 2824 2817 2809 2801 2794 2788 2779 2769 2763 2758 2754 2745 2741 2734 2731 2727 2723 2719 2717 2715
3009 3004 2997 2991 2984 2977 2970 2962 2953 2945 2937 2927 2918 2909 2898 2887 2876 2867 2857 2849 2842 2832 2825 2817 2809 2800 2792 2786 2778 2770 2760 2751 2742 2745 2732 2728 2724 2717 2715 2709 2704 2701 2699
3003 2997 2989 2982 2976 2968 2961 2953 2945 2937 2927 2917 2906 2894 2884 2874 2865 2854 2847 2838 2832 2826 2818 2809 2797 2792 2783 2777 2768 2760 2753 2745 2737 2733 2723 2715 2714 2705 2702 2697 2692 2688 2684
2995 2988 2981 2974 2967 2959 2951 2943 2934 2925 2917 2906 2894 2883 2872 2864 2854 2844 2835 2826 2821 2816 2809 2800 2792 2785 2777 2770 2762 2754 2744 2736 2730 2725 2717 2703 2702 2695 2690 2686 2681 2675 2671
2987 2980 2974 2966 2958 2951 2942 2932 2922 2915 2905 2895 2883 2873 2863 2854 2845 2837 2827 2818 2812 2806 2800 2794 2788 2780 2772 2765 2757 2748 2740 2730 2721 2718 2715 2699 2695 2685 2680 2675 2670 2666 2661
2979 2973 2966 2959 2950 2941 2931 2922 2912 2902 2894 2883 2876 2865 2856 2847 2838 2830 2821 2811 2804 2798 2791 2784 2779 2774 2767 2761 2754 2745 2736 2726 2718 2709 2709 2694 2686 2678 2665 2664 2660 2656 2651